DMSP 5D-2 F13 DEB, 40437

Orbit data source: Space-Track

DMSP 5D-2 F13 DEB, 40437 is space debris in SSO originally from a launch on Fri, 24 Mar 1995 UTC launched from the Air Force Western Test Range (AFWTR). Debris objects in space refer to the collection of defunct objects orbiting the Earth. Examples of debris include non-operational satellites, rocket bodies, and fragments generated from explosions, collisions, or faulty payload assembly.

Loading next visibility...
Identifier
40437, 1995-015AP
Orbit
SSO
Last TLE update
1 day ago
Origin
Manufacturer
Unknown
Mission
Spacecraft
Bus & Motor
Unknown
Mass
Unknown
Launch date (UTC)
1995-03-24 (30 years ago)
Launch vehicle
Unknown
Launch site
Air Force Western Test Range (AFWTR)
Object type
Payload
Rocket body
Debris
Shape & HBR
Unknown
Radar Cross Section
Small (<0.1 m²)

Expand to show TLE details & history

TLE from 1 day ago
0 DMSP 5D-2 F13 DEB
1 40437U 95015AP  25128.09417164  .00018702  00000-0  40180-2 0  9991
2 40437  98.6655 179.8608 0011856 231.0847 128.9294 14.58561951530686
Epoch: 2025-05-08T02:15Z
Definitive object data (Epoch: 2025-05-08T02:15:36.429Z)
Latitude
-0.00008°
Longitude
-80.21058°
Altitude
706.068 km
Speed
7.5 km/s
True Right ascension
11h 59m 26s
True Declination
0° 00' 00"
Sunlit
Object was in full shadow at TLE epoch
Visualization TLE readout
Latitude
-73.04905°
Longitude
-49.1856°
Altitude
719.967 km
Speed
7.497 km/s
Apparent Right ascension
02h 02m 35s
Apparent Declination
-75° 23' 54"
Sunlit
Object is in full shadow
Visualization observer readout
Local Sidereal Time
14:02:59
Azimuth
179.956° S
Elevation
-54.518°
Doppler factor
1
Orbital elements
Apogee altitude
703.312 km
Perigee altitude
686.54 km
Semi-major axis
7,073.063 km
Eccentricity
0.0011856
Inclination
98.6655°
RAAN
179.8608°
Arg. of periapsis
231.0847°
True anomaly
129.03499°
Mean anomaly
128.9294°
Eccentric anomaly
128.9822°
Mean motion
3.64865 °/min
BSTAR
0.004018
Orbital period
98.67 mins
Loading maneuver chart data...
Loading SW <> Apogee altitude chart data...

DMSP 5D-2 F13 DEB Visibility forecast

Observer location: undefined°, undefined°

Span
Click to sort rows by Start time (UTC) header in descending order
Start Az.
Max El. time (UTC)
Max El. Az.
Max El.
End time (UTC)
End Az.
5 mins2025-05-09 15:05:15.056Z59.574° ENE2025-05-09 15:07:15.056Z85.072° E13.911°2025-05-09 15:10:15.056Z124.969° SE
7 mins2025-05-09 16:42:15.056Z359.986° N2025-05-09 16:45:15.056Z307.748° NW38.624°2025-05-09 16:49:15.056Z214.054° SW
4 mins2025-05-10 02:11:15.056Z86.008° E2025-05-10 02:13:15.056Z55.687° ENE16.268°2025-05-10 02:15:15.056Z28.889° NE
7 mins2025-05-10 03:47:15.056Z193.24° SSW2025-05-10 03:50:15.056Z275.024° WNW37.549°2025-05-10 03:54:15.056Z334.979° NNW
|